User: anonymous   Login
Location: Newark
(35.0033°N, 81.0878°W)
Time: 01:52:36
(UTC+00:00)
Language:

JUGNU - Orbit

View from above orbital plane
View from above orbital plane
View from above satellite
View from above satellite

Ground track
Ground track

The orbit data is extracted from the following two-line orbital elements,

1 37839U 11058B   19291.38027521 +.00000320 +00000-0 +28613-4 0  9994
2 37839 019.9623 316.8402 0018688 228.3681 248.2377 14.12661586414379
Epoch (UTC): 18 October 2019 09:07:35
Eccentricity: 0.0018688
inclination: 19.9623°
perigee height: 837 km
apogee height: 864 km
right ascension of ascending node: 316.8402°
argument of perigee: 228.3681°
revolutions per day: 14.12661586
mean anomaly at epoch: 248.2377°
orbit number at epoch: 41437

The dashed part of the orbit path shows where the satellite is in the earth's shadow,  

DLR